| time (UTC) | temp F | wind direction | speed MPH | gust MPH | rain 1hr in | rain 24hr in | rain mn in | humidity % | barometer mb |
| 20260505173015 | 66 | 248 | 1.0 | 6.0 | 0.00 | 0.51 | 0.17 | 62 | 1012.8 |
| 20260505172015 | 65 | 225 | 1.0 | 3.0 | 0.00 | 0.51 | 0.17 | 64 | 1012.8 |
| 20260505171015 | 65 | 203 | 3.0 | 6.0 | 0.00 | 0.51 | 0.17 | 64 | 1012.8 |
| 20260505170015 | 65 | 203 | 2.0 | 4.0 | 0.00 | 0.51 | 0.17 | 65 | 1012.7 |
| 20260505165015 | 64 | 0 | 2.0 | 9.0 | 0.00 | 0.51 | 0.17 | 65 | 1012.8 |
| 20260505164015 | 64 | 68 | 3.0 | 7.0 | 0.00 | 0.51 | 0.17 | 70 | 1012.7 |
| 20260505163015 | 62 | 135 | 1.0 | 3.0 | 0.00 | 0.51 | 0.17 | 75 | 1012.9 |
| 20260505162020 | 62 | 0.0 | 3.0 | 0.00 | 0.51 | 0.17 | 76 | 1013.0 | |
| 20260505161015 | 62 | 0.0 | 0.0 | 0.00 | 0.51 | 0.17 | 76 | 1013.0 | |
| 20260505153015 | 61 | 0.0 | 2.0 | 0.00 | 0.51 | 0.17 | 77 | 1012.7 | |
| 20260505152015 | 61 | 0.0 | 3.0 | 0.00 | 0.51 | 0.17 | 77 | 1012.7 | |
| 20260505151015 | 61 | 0.0 | 2.0 | 0.00 | 0.51 | 0.17 | 79 | 1012.7 | |
| 20260505140518 | 60 | 68 | 1.0 | 2.0 | 0.00 | 0.51 | 0.17 | 79 | 1012.2 |
| 20260505124517 | 58 | 45 | 2.0 | 5.0 | 0.01 | 0.51 | 0.17 | 86 | 1011.5 |
| 20260505123517 | 58 | 0.0 | 2.0 | 0.02 | 0.51 | 0.17 | 85 | 1011.5 | |
| 20260505122517 | 58 | 0 | 1.0 | 4.0 | 0.02 | 0.51 | 0.17 | 83 | 1011.4 |
| 20260505121517 | 58 | 0.0 | 2.0 | 0.02 | 0.51 | 0.17 | 84 | 1011.1 | |
| 20260505120517 | 57 | 45 | 3.0 | 9.0 | 0.02 | 0.51 | 0.17 | 85 | 1011.1 |
| 20260505115517 | 57 | 45 | 3.0 | 6.0 | 0.01 | 0.50 | 0.16 | 85 | 1011.1 |
| 20260505114517 | 57 | 90 | 3.0 | 10.0 | 0.01 | 0.50 | 0.16 | 84 | 1011.1 |
| 20260505113517 | 57 | 90 | 3.0 | 6.0 | 0.00 | 0.49 | 0.15 | 85 | 1011.4 |
| 20260505112517 | 57 | 90 | 2.0 | 7.0 | 0.00 | 0.49 | 0.15 | 84 | 1011.4 |
| 20260505111517 | 57 | 45 | 3.0 | 6.0 | 0.01 | 0.49 | 0.15 | 86 | 1011.3 |
| 20260505110517 | 57 | 68 | 5.0 | 10.0 | 0.02 | 0.49 | 0.15 | 87 | 1011.5 |
| 20260505101517 | 57 | 90 | 4.0 | 9.0 | 0.04 | 0.48 | 0.14 | 91 | 1012.6 |
| 20260505100517 | 57 | 90 | 5.0 | 10.0 | 0.03 | 0.47 | 0.13 | 91 | 1012.6 |
| 20260505095517 | 57 | 90 | 6.0 | 12.0 | 0.04 | 0.47 | 0.13 | 91 | 1012.7 |
| 20260505094517 | 57 | 90 | 6.0 | 12.0 | 0.04 | 0.47 | 0.13 | 91 | 1012.6 |
| 20260505093517 | 57 | 90 | 6.0 | 13.0 | 0.03 | 0.46 | 0.12 | 91 | 1012.8 |
| 20260505092517 | 57 | 90 | 8.0 | 15.0 | 0.03 | 0.45 | 0.11 | 91 | 1012.9 |
| 20260505091517 | 58 | 90 | 7.0 | 14.0 | 0.02 | 0.44 | 0.10 | 90 | 1012.9 |
| 20260505090517 | 57 | 68 | 10.0 | 15.0 | 0.03 | 0.44 | 0.10 | 90 | 1012.9 |
| 20260505085517 | 58 | 90 | 7.0 | 12.0 | 0.04 | 0.43 | 0.09 | 90 | 1013.1 |
| 20260505084517 | 58 | 90 | 6.0 | 11.0 | 0.05 | 0.43 | 0.09 | 90 | 1013.5 |
| 20260505083517 | 58 | 68 | 5.0 | 8.0 | 0.06 | 0.43 | 0.09 | 89 | 1014.0 |
| 20260505082517 | 58 | 90 | 4.0 | 8.0 | 0.06 | 0.42 | 0.08 | 89 | 1014.3 |
| 20260505081517 | 58 | 68 | 2.0 | 4.0 | 0.07 | 0.42 | 0.08 | 89 | 1014.4 |
| 20260505080517 | 58 | 68 | 2.0 | 5.0 | 0.07 | 0.41 | 0.07 | 88 | 1014.7 |
| 20260505075517 | 58 | 68 | 2.0 | 4.0 | 0.06 | 0.39 | 0.05 | 88 | 1015.1 |
| 20260505074517 | 58 | 90 | 1.0 | 3.0 | 0.06 | 0.38 | 0.04 | 88 | 1015.3 |
| 20260505073517 | 58 | 45 | 1.0 | 4.0 | 0.06 | 0.37 | 0.03 | 88 | 1015.3 |
| 20260505072517 | 58 | 68 | 2.0 | 5.0 | 0.06 | 0.36 | 0.02 | 89 | 1015.1 |
| 20260505071517 | 58 | 68 | 1.0 | 3.0 | 0.06 | 0.35 | 0.01 | 89 | 1015.2 |
| 20260505070517 | 58 | 68 | 1.0 | 3.0 | 0.07 | 0.34 | 0.00 | 89 | 1015.0 |
| 20260505065515 | 58 | 90 | 1.0 | 2.0 | 0.08 | 0.33 | 0.33 | 88 | 1014.9 |
| 20260505064515 | 58 | 0.0 | 1.0 | 0.09 | 0.32 | 0.32 | 88 | 1014.8 | |
| 20260505063515 | 58 | 0.0 | 1.0 | 0.10 | 0.31 | 0.31 | 88 | 1014.8 | |
| 20260505062515 | 59 | 0.0 | 1.0 | 0.12 | 0.30 | 0.30 | 87 | 1014.9 | |
| 20260505061515 | 59 | 45 | 1.0 | 3.0 | 0.13 | 0.29 | 0.29 | 87 | 1015.0 |
| 20260505060515 | 59 | 68 | 3.0 | 5.0 | 0.12 | 0.27 | 0.27 | 85 | 1015.0 |
| 20260505055515 | 58 | 0 | 4.0 | 11.0 | 0.11 | 0.25 | 0.25 | 85 | 1014.8 |
| 20260505054515 | 59 | 0 | 2.0 | 5.0 | 0.10 | 0.23 | 0.23 | 85 | 1014.8 |
| 20260505053515 | 59 | 0 | 1.0 | 3.0 | 0.08 | 0.21 | 0.21 | 84 | 1015.1 |
| 20260505052515 | 60 | 180 | 1.0 | 4.0 | 0.05 | 0.18 | 0.18 | 84 | 1015.0 |
| 20260505051515 | 59 | 45 | 2.0 | 6.0 | 0.04 | 0.16 | 0.16 | 82 | 1014.7 |
| 20260505050515 | 60 | 45 | 1.0 | 3.0 | 0.04 | 0.15 | 0.15 | 84 | 1014.5 |
| 20260505041515 | 61 | 293 | 1.0 | 4.0 | 0.01 | 0.12 | 0.12 | 80 | 1014.9 |
| 20260505040515 | 61 | 23 | 2.0 | 4.0 | 0.00 | 0.11 | 0.11 | 77 | 1014.9 |
| 20260505035515 | 60 | 68 | 2.0 | 5.0 | 0.01 | 0.11 | 0.11 | 77 | 1014.8 |
| 20260505034517 | 60 | 0.0 | 3.0 | 0.01 | 0.11 | 0.11 | 76 | 1014.4 | |
| 20260505033517 | 60 | 135 | 1.0 | 4.0 | 0.02 | 0.11 | 0.11 | 74 | 1013.8 |
| 20260505032517 | 60 | 90 | 2.0 | 6.0 | 0.02 | 0.11 | 0.11 | 76 | 1013.6 |
| 20260505031517 | 59 | 68 | 3.0 | 7.0 | 0.03 | 0.11 | 0.11 | 74 | 1013.8 |
| 20260505030517 | 58 | 45 | 5.0 | 12.0 | 0.05 | 0.11 | 0.11 | 72 | 1014.5 |
| 20260505025517 | 57 | 90 | 6.0 | 13.0 | 0.06 | 0.10 | 0.10 | 72 | 1014.7 |
| 20260505024517 | 58 | 68 | 4.0 | 7.0 | 0.07 | 0.10 | 0.10 | 75 | 1014.8 |
| 20260505023517 | 58 | 68 | 4.0 | 9.0 | 0.07 | 0.09 | 0.09 | 71 | 1014.9 |
| 20260505022517 | 59 | 45 | 4.0 | 7.0 | 0.07 | 0.09 | 0.09 | 71 | 1014.8 |
| 20260505021517 | 59 | 0 | 5.0 | 9.0 | 0.07 | 0.08 | 0.08 | 69 | 1014.8 |
| 20260505020517 | 61 | 23 | 1.0 | 4.0 | 0.05 | 0.06 | 0.06 | 65 | 1014.9 |
| 20260505015517 | 62 | 315 | 2.0 | 6.0 | 0.03 | 0.04 | 0.04 | 58 | 1014.8 |
| 20260505014517 | 62 | 293 | 6.0 | 16.0 | 0.03 | 0.03 | 0.03 | 57 | 1014.6 |
| 20260505013517 | 63 | 338 | 5.0 | 11.0 | 0.02 | 0.02 | 0.02 | 57 | 1014.5 |
| 20260505012517 | 63 | 23 | 4.0 | 12.0 | 0.02 | 0.02 | 0.02 | 58 | 1014.3 |
| 20260505011517 | 64 | 0 | 2.0 | 4.0 | 0.01 | 0.01 | 0.01 | 63 | 1014.0 |
| 20260505010517 | 65 | 338 | 2.0 | 4.0 | 0.01 | 0.01 | 0.01 | 61 | 1014.0 |
| 20260505005517 | 66 | 270 | 1.0 | 4.0 | 0.01 | 0.01 | 0.01 | 55 | 1014.0 |
| 20260505004517 | 67 | 270 | 1.0 | 7.0 | 0.00 | 0.00 | 0.00 | 50 | 1014.0 |
| 20260505003517 | 67 | 293 | 4.0 | 10.0 | 0.00 | 0.00 | 0.00 | 48 | 1014.0 |
| 20260505002517 | 68 | 0.0 | 2.0 | 0.00 | 0.00 | 0.00 | 47 | 1014.0 | |
| 20260505001517 | 68 | 315 | 1.0 | 4.0 | 0.00 | 0.00 | 0.00 | 46 | 1013.8 |
| 20260505000517 | 69 | 0.0 | 4.0 | 0.00 | 0.00 | 0.00 | 44 | 1013.5 | |
| 20260504235517 | 69 | 0 | 1.0 | 4.0 | 0.00 | 0.00 | 0.00 | 42 | 1013.0 |
| 20260504234517 | 69 | 293 | 2.0 | 8.0 | 0.00 | 0.00 | 0.00 | 43 | 1013.1 |
| 20260504233517 | 69 | 270 | 1.0 | 7.0 | 0.00 | 0.00 | 0.00 | 42 | 1013.7 |
| 20260504232517 | 71 | 248 | 2.0 | 6.0 | 0.00 | 0.00 | 0.00 | 41 | 1014.1 |
| 20260504231517 | 73 | 248 | 8.0 | 19.0 | 0.00 | 0.00 | 0.00 | 34 | 1013.9 |
| 20260504230517 | 74 | 225 | 3.0 | 6.0 | 0.00 | 0.00 | 0.00 | 28 | 1013.6 |
| 20260504225517 | 75 | 248 | 6.0 | 12.0 | 0.00 | 0.00 | 0.00 | 26 | 1013.4 |
| 20260504224517 | 76 | 248 | 7.0 | 17.0 | 0.00 | 0.00 | 0.00 | 26 | 1013.1 |
| 20260504223517 | 76 | 248 | 10.0 | 23.0 | 0.00 | 0.00 | 0.00 | 23 | 1013.1 |
| 20260504222517 | 77 | 270 | 12.0 | 23.0 | 0.00 | 0.00 | 0.00 | 23 | 1013.0 |
| 20260504221517 | 77 | 270 | 7.0 | 15.0 | 0.00 | 0.00 | 0.00 | 22 | 1013.1 |
| 20260504220517 | 77 | 293 | 9.0 | 17.0 | 0.00 | 0.00 | 0.00 | 21 | 1013.3 |
| 20260504215517 | 78 | 293 | 11.0 | 19.0 | 0.00 | 0.00 | 0.00 | 21 | 1013.2 |
| 20260504214517 | 78 | 293 | 10.0 | 17.0 | 0.00 | 0.00 | 0.00 | 21 | 1013.1 |
| 20260504213517 | 78 | 270 | 7.0 | 14.0 | 0.00 | 0.00 | 0.00 | 23 | 1012.8 |
| 20260504212517 | 78 | 270 | 10.0 | 19.0 | 0.00 | 0.00 | 0.00 | 22 | 1012.9 |
| 20260504211517 | 79 | 270 | 9.0 | 17.0 | 0.00 | 0.00 | 0.00 | 23 | 1013.0 |
| 20260504210517 | 79 | 248 | 4.0 | 10.0 | 0.00 | 0.00 | 0.00 | 19 | 1013.2 |
| 20260504205517 | 79 | 270 | 3.0 | 10.0 | 0.00 | 0.00 | 0.00 | 19 | 1013.2 |
| 20260504204517 | 79 | 248 | 3.0 | 8.0 | 0.00 | 0.00 | 0.00 | 19 | 1013.2 |
| 20260504203517 | 80 | 248 | 4.0 | 12.0 | 0.00 | 0.00 | 0.00 | 19 | 1013.2 |
| 20260504202517 | 80 | 270 | 3.0 | 7.0 | 0.00 | 0.00 | 0.00 | 19 | 1013.4 |
| 20260504201517 | 80 | 293 | 2.0 | 4.0 | 0.00 | 0.00 | 0.00 | 20 | 1013.5 |
| 20260504200517 | 80 | 270 | 1.0 | 3.0 | 0.00 | 0.00 | 0.00 | 20 | 1013.5 |
| 20260504195517 | 80 | 225 | 4.0 | 9.0 | 0.00 | 0.00 | 0.00 | 20 | 1013.4 |
| 20260504194517 | 79 | 135 | 4.0 | 8.0 | 0.00 | 0.00 | 0.00 | 23 | 1013.3 |
| 20260504193517 | 79 | 135 | 4.0 | 11.0 | 0.00 | 0.00 | 0.00 | 23 | 1013.3 |
| 20260504192517 | 79 | 113 | 4.0 | 9.0 | 0.00 | 0.00 | 0.00 | 24 | 1013.3 |
| 20260504191517 | 78 | 113 | 2.0 | 7.0 | 0.00 | 0.00 | 0.00 | 25 | 1013.5 |
| 20260504190517 | 78 | 90 | 6.0 | 10.0 | 0.00 | 0.00 | 0.00 | 24 | 1013.3 |
| 20260504185517 | 78 | 135 | 4.0 | 9.0 | 0.00 | 0.00 | 0.00 | 25 | 1013.6 |
| 20260504184517 | 78 | 135 | 4.0 | 10.0 | 0.00 | 0.00 | 0.00 | 26 | 1013.9 |
| 20260504183517 | 78 | 203 | 2.0 | 5.0 | 0.00 | 0.00 | 0.00 | 25 | 1014.0 |
| 20260504182517 | 77 | 158 | 3.0 | 8.0 | 0.00 | 0.00 | 0.00 | 26 | 1014.0 |
| 20260504181517 | 77 | 158 | 4.0 | 8.0 | 0.00 | 0.00 | 0.00 | 26 | 1014.3 |
| 20260504180517 | 76 | 23 | 2.0 | 6.0 | 0.00 | 0.00 | 0.00 | 27 | 1014.2 |
| 20260504175517 | 76 | 113 | 4.0 | 7.0 | 0.00 | 0.00 | 0.00 | 27 | 1014.3 |
| 20260504174517 | 76 | 158 | 2.0 | 6.0 | 0.00 | 0.00 | 0.00 | 27 | 1014.3 |